This demonstration page uses our WeatherBlox Daily Observations layout. Learn more.

41.55636, -103.73856

Hourly Observations for January 22, 2019

Temp ( °F °C ) Dew Point ( °F °C ) Humidity (%) Winds ( mph kmh ) Pressure ( in mb ) Visibility ( mi km ) Precip ( " mm )
12:58 am 00:58 Mostly Cloudy 33 0.5 27 -2.6 80 80 NNW 8 13 29.62 1003 10 16.0934 N/A
1:58 am 01:58 Windy with Snow Likely 29 -1.5 26 -3.3 88 88 NW 26 43 29.68 1005 2.25 3.621015 N/A
2:58 am 02:58 Mostly Cloudy with Heavy Snow 24 -4.3 22 -5.7 90 90 NNW 26 43 29.72 1007 0.25 0.402335 N/A
3:58 am 03:58 Windy with Snow Likely 21 -6.2 19 -7.1 93 93 N 22 35 29.78 1009 0.75 1.207005 N/A
4:58 am 04:58 Windy with Snow Likely 18 -7.6 16 -9.1 89 89 NNW 25 41 29.81 1009 5 8.0467 N/A
5:58 am 05:58 Mostly Cloudy with Scattered Snow Showers 17 -8.5 14 -10.1 88 88 N 22 35 29.85 1011 2 3.21868 N/A
6:58 am 06:58 Mostly Cloudy with Scattered Snow Showers 14 -9.8 11 -11.4 88 88 N 31 50 29.88 1012 2.75 4.425685 N/A
7:58 am 07:58 Mostly Cloudy with Scattered Snow Showers 14 -10 10 -12 85 85 N 31 50 29.9 1013 2 3.21868 N/A
8:58 am 08:58 Mostly Cloudy with Scattered Snow Showers 14 -9.9 11 -11.4 89 89 N 24 39 29.94 1014 7 11.26538 N/A
9:58 am 09:58 Cloudy with Snow 17 -8.6 14 -10 90 90 NNW 23 37 29.97 1015 5 8.0467 N/A
10:58 am 10:58 Cloudy with Snow 19 -7.5 16 -8.9 90 90 NNW 29 46 30.02 1017 0.5 0.80467 N/A
11:58 am 11:58 Cloudy with Snow 19 -7.2 16 -8.7 89 89 NNW 24 39 30.05 1018 0.75 1.207005 N/A
12:58 pm 12:58 Cloudy with Snow 19 -7 17 -8.5 89 89 NNW 26 43 30.07 1018 0.5 0.80467 N/A
1:58 pm 13:58 Cloudy with Snow 19 -7.3 16 -8.7 90 90 NNW 29 46 30.13 1020 0.5 0.80467 N/A
2:58 pm 14:58 Windy with Snow Likely 19 -7 16 -8.9 86 86 NNW 26 43 30.19 1022 4 6.43736 N/A
3:58 pm 15:58 Mostly Cloudy with Mist and Fog 20 -6.7 17 -8.2 89 89 NNW 24 39 30.24 1024 6 9.65604 N/A
4:58 pm 16:58 Windy with Snow Showers Likely 21 -6.3 17 -8.2 87 87 N 30 48 30.27 1025 5 8.0467 N/A
5:58 pm 17:58 Mostly Cloudy 20 -6.4 16 -8.9 83 83 N 26 43 30.29 1026 10 16.0934 N/A
6:58 pm 18:58 Mostly Cloudy 22 -5.5 17 -8.4 80 80 NNW 23 37 30.27 1025 10 16.0934 N/A
8:56 pm 20:56 Partly Cloudy 23 -5.1 17 -8.3 79 79 NNW 22 35 30.27 1025 10 16.0934 N/A
9:56 pm 21:56 Mostly Sunny 23 -4.8 17 -8.1 78 78 NNW 17 28 30.27 1025 10 16.0934 N/A
10:58 pm 22:58 Sunny 23 -5.1 17 -8.6 77 77 NW 17 28 30.25 1025 10 16.0934 N/A
11:58 pm 23:58 Sunny 20 -6.9 14 -10.1 78 78 NNW 10 17 30.26 1025 10 16.0934 N/A

Powered by AerisWeather